TOM606 GVBA-GCFV

Flight info

Callsign TOM606
Flight time N/A
Altitude 37000
Route CVS1J CVS UN873 IPERA N873 ODEGI/N0449F380 N873 GDV
Aircraft A321/M-SDE3FGHIRWY/LB1

Departure

Time 2026-04-22 20:52
Airport Aristides Pereira International Airport (GVBA)

Arrival

Time N/A
Airport Fuerteventura Airport (GCFV)
Time Latitude Longitude Altitude Speed Heading
2026-04-22 17:50 28.95010 -13.60750 49 ft 0 kts 296°
2026-04-22 18:09 28.95009 -13.60747 49 ft 3 kts 295°
2026-04-22 18:09 28.94998 -13.60719 47 ft 4 kts 289°
2026-04-22 18:09 28.94991 -13.60690 48 ft 4 kts 279°
2026-04-22 18:09 28.94990 -13.60660 50 ft 4 kts 252°
2026-04-22 18:10 28.95000 -13.60642 46 ft 1 kts 206°
2026-04-22 18:10 28.95004 -13.60639 47 ft 0 kts 206°
2026-04-22 18:13 28.94993 -13.60645 48 ft 5 kts 206°
2026-04-22 18:13 28.94931 -13.60668 50 ft 10 kts 167°
2026-04-22 18:13 28.94884 -13.60617 50 ft 9 kts 115°
2026-04-22 18:14 28.94844 -13.60575 50 ft 8 kts 169°
2026-04-22 18:14 28.94798 -13.60588 50 ft 6 kts 200°
2026-04-22 18:14 28.94760 -13.60608 50 ft 8 kts 208°
2026-04-22 18:14 28.94693 -13.60644 50 ft 11 kts 206°
2026-04-22 18:15 28.94617 -13.60687 45 ft 15 kts 206°
2026-04-22 18:15 28.94515 -13.60748 37 ft 19 kts 207°
2026-04-22 18:15 28.94389 -13.60821 31 ft 21 kts 207°
2026-04-22 18:15 28.94258 -13.60896 28 ft 22 kts 207°
2026-04-22 18:16 28.94124 -13.60974 27 ft 22 kts 207°
2026-04-22 18:16 28.93991 -13.61051 28 ft 21 kts 207°
2026-04-22 18:16 28.93858 -13.61128 24 ft 21 kts 207°
2026-04-22 18:16 28.93729 -13.61203 24 ft 20 kts 206°
2026-04-22 18:17 28.93626 -13.61156 24 ft 17 kts 121°
2026-04-22 18:17 28.93627 -13.61056 25 ft 8 kts 22°
2026-04-22 18:17 28.93787 -13.60959 29 ft 60 kts 26°
2026-04-22 18:17 28.94356 -13.60633 31 ft 121 kts 26°
2026-04-22 18:18 28.95239 -13.60119 149 ft 155 kts 32°
2026-04-22 18:18 28.96161 -13.59521 779 ft 153 kts 36°
2026-04-22 18:18 28.97055 -13.58815 1355 ft 158 kts 34°
2026-04-22 18:18 28.98001 -13.58021 1660 ft 178 kts 32°
2026-04-22 18:19 28.99056 -13.57159 1878 ft 195 kts 33°
2026-04-22 18:19 29.00193 -13.56204 2083 ft 212 kts 36°
2026-04-22 18:19 29.01338 -13.54994 2206 ft 238 kts 47°
2026-04-22 18:19 29.02412 -13.53450 2704 ft 254 kts 49°
2026-04-22 18:20 29.03514 -13.51831 3416 ft 262 kts 51°
2026-04-22 18:20 29.04661 -13.50158 4060 ft 272 kts 51°
2026-04-22 18:20 29.05848 -13.48445 4833 ft 276 kts 50°
2026-04-22 18:20 29.07053 -13.46720 5611 ft 281 kts 50°
2026-04-22 18:21 29.08302 -13.44980 6144 ft 293 kts 49°
2026-04-22 18:21 29.09672 -13.43241 6805 ft 296 kts 39°
2026-04-22 18:21 29.11487 -13.42186 7451 ft 294 kts
2026-04-22 18:21 29.13501 -13.42255 8083 ft 291 kts 339°
2026-04-22 18:22 29.15259 -13.43331 8688 ft 288 kts 314°
2026-04-22 18:22 29.16456 -13.45136 9301 ft 284 kts 289°
2026-04-22 18:22 29.16849 -13.47305 9930 ft 279 kts 265°
2026-04-22 18:22 29.16714 -13.49562 10258 ft 294 kts 262°
2026-04-22 18:23 29.16415 -13.51943 10392 ft 312 kts 255°
2026-04-22 18:23 29.15867 -13.54425 10512 ft 331 kts 253°
2026-04-22 18:23 29.15286 -13.57053 10651 ft 348 kts 254°
2026-04-22 18:24 29.14010 -13.62506 11540 ft 358 kts 246°
2026-04-22 18:24 29.12808 -13.64998 12054 ft 359 kts 232°
2026-04-22 18:24 29.08913 -13.68533 13096 ft 364 kts 204°
2026-04-22 18:25 29.06480 -13.69369 13611 ft 368 kts 194°
2026-04-22 18:25 29.03985 -13.70081 14071 ft 370 kts 199°
2026-04-22 18:25 29.01628 -13.71250 14519 ft 370 kts 210°
2026-04-22 18:26 28.97719 -13.75031 15394 ft 374 kts 226°
2026-04-22 18:26 28.95900 -13.77215 15837 ft 376 kts 226°
2026-04-22 18:26 28.94114 -13.79346 16241 ft 377 kts 225°
2026-04-22 18:26 28.92293 -13.81511 16642 ft 379 kts 225°
2026-04-22 18:27 28.90462 -13.83685 17039 ft 381 kts 225°
2026-04-22 18:27 28.88619 -13.85868 17448 ft 383 kts 226°
2026-04-22 18:27 28.86768 -13.88060 17833 ft 385 kts 226°
2026-04-22 18:27 28.84909 -13.90267 18220 ft 387 kts 226°
2026-04-22 18:28 28.83039 -13.92489 18570 ft 389 kts 226°
2026-04-22 18:28 28.81163 -13.94718 18942 ft 390 kts 225°
2026-04-22 18:28 28.79280 -13.96955 19310 ft 391 kts 225°
2026-04-22 18:28 28.77385 -13.99202 19686 ft 393 kts 225°
2026-04-22 18:29 28.75489 -14.01451 20060 ft 394 kts 225°
2026-04-22 18:29 28.73583 -14.03710 20426 ft 396 kts 225°
2026-04-22 18:29 28.71673 -14.05977 20808 ft 398 kts 225°
2026-04-22 18:29 28.69749 -14.08258 21184 ft 400 kts 225°
2026-04-22 18:30 28.67817 -14.10543 21551 ft 401 kts 225°
2026-04-22 18:30 28.63929 -14.15133 22280 ft 405 kts 225°
2026-04-22 18:30 28.61966 -14.17447 22629 ft 407 kts 225°
2026-04-22 18:31 28.59992 -14.19767 22978 ft 408 kts 225°
2026-04-22 18:31 28.58012 -14.22096 23344 ft 410 kts 225°
2026-04-22 18:31 28.56030 -14.24441 23671 ft 412 kts 225°
2026-04-22 18:31 28.54067 -14.26776 23955 ft 413 kts 225°
2026-04-22 18:32 28.52076 -14.29149 24251 ft 415 kts 226°
2026-04-22 18:32 28.50081 -14.31527 24554 ft 416 kts 226°
2026-04-22 18:32 28.48077 -14.33910 24830 ft 418 kts 226°
2026-04-22 18:32 28.46062 -14.36294 25126 ft 419 kts 226°
2026-04-22 18:33 28.44039 -14.38682 25412 ft 420 kts 226°
2026-04-22 18:33 28.42010 -14.41077 25699 ft 421 kts 226°
2026-04-22 18:33 28.39974 -14.43479 25958 ft 423 kts 226°
2026-04-22 18:33 28.37929 -14.45888 26209 ft 424 kts 226°
2026-04-22 18:34 28.35880 -14.48305 26446 ft 425 kts 227°
2026-04-22 18:34 28.33831 -14.50724 26673 ft 426 kts 227°
2026-04-22 18:34 28.31773 -14.53156 26887 ft 427 kts 227°
2026-04-22 18:34 28.29712 -14.55590 27091 ft 428 kts 227°
2026-04-22 18:35 28.27645 -14.58028 27302 ft 429 kts 227°
2026-04-22 18:35 28.25578 -14.60464 27569 ft 427 kts 227°
2026-04-22 18:35 28.23619 -14.62986 27851 ft 425 kts 234°
2026-04-22 18:35 28.22071 -14.65826 28116 ft 424 kts 243°
2026-04-22 18:36 28.20999 -14.68888 28366 ft 423 kts 252°
2026-04-22 18:36 28.20349 -14.72188 28641 ft 423 kts 257°
2026-04-22 18:36 28.19794 -14.75415 28915 ft 422 kts 257°
2026-04-22 18:36 28.19225 -14.78672 29179 ft 421 kts 257°
2026-04-22 18:37 28.18649 -14.81922 29455 ft 419 kts 257°
2026-04-22 18:37 28.18069 -14.85161 29716 ft 418 kts 257°
2026-04-22 18:37 28.17677 -14.87337 29893 ft 417 kts 257°
2026-04-22 18:37 28.16912 -14.91599 30230 ft 415 kts 257°
2026-04-22 18:38 28.16341 -14.94799 30509 ft 412 kts 257°
2026-04-22 18:38 28.15779 -14.97970 30873 ft 407 kts 257°
2026-04-22 18:38 28.15227 -15.01096 31245 ft 402 kts 257°
2026-04-22 18:39 28.14136 -15.07222 31997 ft 391 kts 257°
2026-04-22 18:39 28.13597 -15.10230 32378 ft 386 kts 257°
2026-04-22 18:39 28.13065 -15.13203 32767 ft 381 kts 257°
2026-04-22 18:39 28.12544 -15.16126 33149 ft 376 kts 257°
2026-04-22 18:40 28.12029 -15.19006 33531 ft 371 kts 257°
2026-04-22 18:40 28.11524 -15.21817 33900 ft 366 kts 257°
2026-04-22 18:40 28.11018 -15.24626 34223 ft 362 kts 257°
2026-04-22 18:40 28.10516 -15.27406 34482 ft 359 kts 256°
2026-04-22 18:41 28.10014 -15.30170 34710 ft 357 kts 256°
2026-04-22 18:41 28.09515 -15.32914 34927 ft 355 kts 256°
2026-04-22 18:41 28.09018 -15.35651 35126 ft 353 kts 256°
2026-04-22 18:41 28.08521 -15.38369 35323 ft 352 kts 255°
2026-04-22 18:42 28.07712 -15.40966 35466 ft 350 kts 244°
2026-04-22 18:42 28.06380 -15.43280 35640 ft 353 kts 234°
2026-04-22 18:42 28.04574 -15.45194 35830 ft 361 kts 223°
2026-04-22 18:42 28.02472 -15.46764 36007 ft 362 kts 221°
2026-04-22 18:43 28.00361 -15.48311 36143 ft 361 kts 222°
2026-04-22 18:43 27.98256 -15.49853 36260 ft 360 kts 221°
2026-04-22 18:43 27.96160 -15.51392 36407 ft 358 kts 222°
2026-04-22 18:43 27.94073 -15.52923 36525 ft 356 kts 222°
2026-04-22 18:44 27.91996 -15.54452 36655 ft 357 kts 222°
2026-04-22 18:44 27.89913 -15.55988 36783 ft 357 kts 221°
2026-04-22 18:44 27.87840 -15.57517 36944 ft 356 kts 221°
2026-04-22 18:44 27.85762 -15.59043 36998 ft 356 kts 221°
2026-04-22 18:45 27.81599 -15.62094 37007 ft 356 kts 222°
2026-04-22 18:45 27.77474 -15.65121 37004 ft 356 kts 222°
2026-04-22 18:46 27.73319 -15.68163 36996 ft 355 kts 222°
2026-04-22 18:46 27.69167 -15.71201 37001 ft 355 kts 222°
2026-04-22 18:47 27.65022 -15.74233 37005 ft 355 kts 222°
2026-04-22 18:47 27.60873 -15.77266 37013 ft 355 kts 222°
2026-04-22 18:48 27.56722 -15.80297 37010 ft 355 kts 222°
2026-04-22 18:48 27.52573 -15.83321 37003 ft 355 kts 222°
2026-04-22 18:49 27.48419 -15.86348 37010 ft 356 kts 222°
2026-04-22 18:49 27.44264 -15.89374 36980 ft 356 kts 222°
2026-04-22 18:50 27.40105 -15.92394 36995 ft 356 kts 222°
2026-04-22 18:50 27.35944 -15.95419 37009 ft 356 kts 222°
2026-04-22 18:51 27.31783 -15.98443 37015 ft 356 kts 222°
2026-04-22 18:51 27.27622 -16.01463 37037 ft 356 kts 222°
2026-04-22 18:52 27.23464 -16.04475 37031 ft 355 kts 222°
2026-04-22 18:52 27.19339 -16.07457 37029 ft 355 kts 222°
2026-04-22 18:53 27.15190 -16.10455 37023 ft 354 kts 222°
2026-04-22 18:53 27.11047 -16.13448 36984 ft 354 kts 222°
2026-04-22 18:54 27.06901 -16.16442 36995 ft 354 kts 222°
2026-04-22 18:54 27.02766 -16.19432 37004 ft 354 kts 222°
2026-04-22 18:55 26.99321 -16.21913 37017 ft 354 kts 222°
2026-04-22 18:55 26.95167 -16.24901 37022 ft 354 kts 222°
2026-04-22 18:56 26.90972 -16.27827 37024 ft 361 kts 216°
2026-04-22 18:56 26.88565 -16.28811 37025 ft 378 kts 205°
2026-04-22 18:56 26.85882 -16.29180 37026 ft 397 kts 196°
2026-04-22 18:57 26.80345 -16.29373 37027 ft 399 kts 196°
2026-04-22 18:57 26.74793 -16.29556 37027 ft 399 kts 196°
2026-04-22 18:58 26.69227 -16.29753 37030 ft 399 kts 196°
2026-04-22 18:58 26.63674 -16.29958 37031 ft 399 kts 196°
2026-04-22 18:59 26.58125 -16.30167 37030 ft 399 kts 196°
2026-04-22 18:59 26.52613 -16.30363 37029 ft 399 kts 196°
2026-04-22 19:00 26.47070 -16.30568 36996 ft 399 kts 197°
2026-04-22 19:00 26.41482 -16.30776 37011 ft 399 kts 196°
2026-04-22 19:01 26.35960 -16.30975 37026 ft 400 kts 196°
2026-04-22 19:01 26.30402 -16.31172 37029 ft 400 kts 196°
2026-04-22 19:02 26.24840 -16.31378 37032 ft 400 kts 196°
2026-04-22 19:02 26.19278 -16.31586 36995 ft 400 kts 196°
2026-04-22 19:03 26.13708 -16.31793 37004 ft 401 kts 196°
2026-04-22 19:03 26.08129 -16.31997 37015 ft 401 kts 196°
2026-04-22 19:04 26.02544 -16.32197 37020 ft 402 kts 196°
2026-04-22 19:04 25.96991 -16.32390 37021 ft 402 kts 196°
2026-04-22 19:05 25.91394 -16.32588 36982 ft 402 kts 196°
2026-04-22 19:05 25.85799 -16.32794 36995 ft 403 kts 196°
2026-04-22 19:06 25.80185 -16.33004 37008 ft 404 kts 196°
2026-04-22 19:07 25.71752 -16.33319 37022 ft 404 kts 196°
2026-04-22 19:07 25.66123 -16.33521 37023 ft 405 kts 196°
2026-04-22 19:08 25.60491 -16.33718 36989 ft 405 kts 196°
2026-04-22 19:08 25.54851 -16.33921 37008 ft 405 kts 196°
2026-04-22 19:09 25.49206 -16.34127 37018 ft 406 kts 196°
2026-04-22 19:09 25.43598 -16.34332 37023 ft 406 kts 196°
2026-04-22 19:10 25.37948 -16.34531 37028 ft 406 kts 196°
2026-04-22 19:10 25.32298 -16.34728 36988 ft 406 kts 195°
2026-04-22 19:11 25.26648 -16.34927 37015 ft 406 kts 195°
2026-04-22 19:11 25.21004 -16.35136 37023 ft 406 kts 196°
2026-04-22 19:12 25.15356 -16.35347 37020 ft 406 kts 195°
2026-04-22 19:12 25.09706 -16.35544 37023 ft 406 kts 195°
2026-04-22 19:13 25.04063 -16.35742 37026 ft 405 kts 196°
2026-04-22 19:13 25.01348 -16.36078 36988 ft 390 kts 205°
2026-04-22 19:13 24.98801 -16.36909 36996 ft 376 kts 213°
2026-04-22 19:13 24.96495 -16.38161 36998 ft 365 kts 220°
2026-04-22 19:14 24.94314 -16.39601 36994 ft 365 kts 220°
2026-04-22 19:14 24.89933 -16.42474 37001 ft 366 kts 220°
2026-04-22 19:15 24.86287 -16.44850 37002 ft 366 kts 220°
2026-04-22 19:15 24.81161 -16.48199 37007 ft 366 kts 220°
2026-04-22 19:16 24.76774 -16.51062 37011 ft 367 kts 220°
2026-04-22 19:16 24.72382 -16.53919 37014 ft 367 kts 220°
2026-04-22 19:17 24.67987 -16.56790 36973 ft 368 kts 220°
2026-04-22 19:17 24.63568 -16.59667 36981 ft 370 kts 220°
2026-04-22 19:18 24.59155 -16.62531 36994 ft 371 kts 220°
2026-04-22 19:18 24.54702 -16.65420 36998 ft 372 kts 219°
2026-04-22 19:19 24.50248 -16.68307 37002 ft 372 kts 219°
2026-04-22 19:19 24.45791 -16.71195 37022 ft 372 kts 219°
2026-04-22 19:20 24.41343 -16.74081 37029 ft 371 kts 219°
2026-04-22 19:20 24.36900 -16.76955 36978 ft 371 kts 219°
2026-04-22 19:21 24.32447 -16.79835 36977 ft 372 kts 219°
2026-04-22 19:21 24.27979 -16.82721 36981 ft 373 kts 219°
2026-04-22 19:22 24.23504 -16.85609 37009 ft 373 kts 219°
2026-04-22 19:22 24.19029 -16.88498 37014 ft 374 kts 219°
2026-04-22 19:23 24.14548 -16.91387 37016 ft 374 kts 219°
2026-04-22 19:23 24.10067 -16.94276 37018 ft 374 kts 219°
2026-04-22 19:24 24.05581 -16.97167 37021 ft 374 kts 219°
2026-04-22 19:24 24.01088 -17.00055 36996 ft 375 kts 219°
2026-04-22 19:25 23.96592 -17.02941 37002 ft 375 kts 219°
2026-04-22 19:25 23.92088 -17.05828 37010 ft 375 kts 219°
2026-04-22 19:26 23.87585 -17.08713 37015 ft 375 kts 219°
2026-04-22 19:26 23.83083 -17.11600 37020 ft 375 kts 219°
2026-04-22 19:27 23.78576 -17.14492 37020 ft 376 kts 219°
2026-04-22 19:27 23.74068 -17.17378 37022 ft 376 kts 219°
2026-04-22 19:28 23.69557 -17.20263 37026 ft 376 kts 219°
2026-04-22 19:28 23.65041 -17.23145 37027 ft 376 kts 219°
2026-04-22 19:29 23.60522 -17.26026 37028 ft 376 kts 219°
2026-04-22 19:29 23.56001 -17.28911 37030 ft 376 kts 219°
2026-04-22 19:30 23.52245 -17.31306 37033 ft 376 kts 219°
2026-04-22 19:30 23.46993 -17.34653 37034 ft 376 kts 219°
2026-04-22 19:31 23.42472 -17.37532 37031 ft 376 kts 219°
2026-04-22 19:31 23.37959 -17.40403 36988 ft 376 kts 219°
2026-04-22 19:32 23.33433 -17.43270 36995 ft 377 kts 219°
2026-04-22 19:32 23.28906 -17.46137 37001 ft 377 kts 219°
2026-04-22 19:33 23.24372 -17.49009 37009 ft 377 kts 219°
2026-04-22 19:33 23.19847 -17.51879 37012 ft 377 kts 219°
2026-04-22 19:34 23.15317 -17.54746 37015 ft 377 kts 219°
2026-04-22 19:34 23.10787 -17.57621 37017 ft 377 kts 219°
2026-04-22 19:35 23.06253 -17.60495 37020 ft 377 kts 219°
2026-04-22 19:35 23.02475 -17.62879 36986 ft 378 kts 219°
2026-04-22 19:36 22.97145 -17.66237 36995 ft 379 kts 219°
2026-04-22 19:36 22.92603 -17.69105 37001 ft 380 kts 219°
2026-04-22 19:37 22.88033 -17.71990 37010 ft 380 kts 218°
2026-04-22 19:37 22.83450 -17.74878 37040 ft 381 kts 218°
2026-04-22 19:38 22.78862 -17.77751 37039 ft 381 kts 218°
2026-04-22 19:38 22.74285 -17.80628 37034 ft 380 kts 219°
2026-04-22 19:39 22.69713 -17.83507 36997 ft 380 kts 218°
2026-04-22 19:39 22.65134 -17.86385 37002 ft 381 kts 218°
2026-04-22 19:40 22.60542 -17.89264 37005 ft 382 kts 218°
2026-04-22 19:40 22.55974 -17.92126 37015 ft 382 kts 218°
2026-04-22 19:41 22.52117 -17.94544 37021 ft 382 kts 218°
2026-04-22 19:41 22.47514 -17.97430 37027 ft 383 kts 218°
2026-04-22 19:42 22.42156 -18.00780 37028 ft 383 kts 218°
2026-04-22 19:42 22.37529 -18.03656 37008 ft 383 kts 218°
2026-04-22 19:43 22.31344 -18.07527 37012 ft 384 kts 218°
2026-04-22 19:43 22.26742 -18.10402 37025 ft 385 kts 218°
2026-04-22 19:44 22.22107 -18.13291 37026 ft 385 kts 218°
2026-04-22 19:44 22.17465 -18.16176 37028 ft 385 kts 218°
2026-04-22 19:45 22.12829 -18.19065 37032 ft 385 kts 218°
2026-04-22 19:45 22.08185 -18.21947 37030 ft 385 kts 218°
2026-04-22 19:46 22.03539 -18.24832 37004 ft 386 kts 218°
2026-04-22 19:46 21.98879 -18.27727 37015 ft 387 kts 218°
2026-04-22 19:47 21.94211 -18.30625 37017 ft 388 kts 218°
2026-04-22 19:47 21.89534 -18.33530 37024 ft 388 kts 218°
2026-04-22 19:48 21.84861 -18.36427 37028 ft 388 kts 218°
2026-04-22 19:48 21.80179 -18.39315 37030 ft 388 kts 218°
2026-04-22 19:49 21.75503 -18.42202 37031 ft 387 kts 218°
2026-04-22 19:49 21.70833 -18.45095 37005 ft 387 kts 217°
2026-04-22 19:50 21.66153 -18.47991 37010 ft 388 kts 217°
2026-04-22 19:50 21.61465 -18.50884 37017 ft 389 kts 217°
2026-04-22 19:51 21.56797 -18.53760 37021 ft 389 kts 217°
2026-04-22 19:51 21.52101 -18.56650 37025 ft 389 kts 217°
2026-04-22 19:52 21.47400 -18.59538 37028 ft 389 kts 217°
2026-04-22 19:52 21.42706 -18.62436 37027 ft 389 kts 217°
2026-04-22 19:53 21.37999 -18.65327 36996 ft 390 kts 217°
2026-04-22 19:53 21.33280 -18.68220 36997 ft 391 kts 217°
2026-04-22 19:54 21.28551 -18.71121 37009 ft 392 kts 217°
2026-04-22 19:54 21.23808 -18.74031 37020 ft 393 kts 217°
2026-04-22 19:55 21.19065 -18.76941 37032 ft 393 kts 217°
2026-04-22 19:55 21.14346 -18.79835 37041 ft 393 kts 217°
2026-04-22 19:56 21.09558 -18.82761 37040 ft 394 kts 217°
2026-04-22 19:56 21.04834 -18.85646 37017 ft 393 kts 217°
2026-04-22 19:57 21.00069 -18.88554 37020 ft 394 kts 217°
2026-04-22 19:57 20.95304 -18.91464 37022 ft 395 kts 217°
2026-04-22 19:58 20.90532 -18.94379 37026 ft 395 kts 217°
2026-04-22 19:58 20.85758 -18.97293 37027 ft 395 kts 217°
2026-04-22 20:00 20.69032 -19.07471 37003 ft 395 kts 216°
2026-04-22 20:01 20.64239 -19.10375 37007 ft 396 kts 216°
2026-04-22 20:01 20.59472 -19.13272 37006 ft 397 kts 216°
2026-04-22 20:02 20.54658 -19.16192 37013 ft 398 kts 216°
2026-04-22 20:02 20.49839 -19.19116 37021 ft 398 kts 216°
2026-04-22 20:03 20.45014 -19.22044 37025 ft 399 kts 216°
2026-04-22 20:03 20.40189 -19.24961 37037 ft 399 kts 216°
2026-04-22 20:04 20.35368 -19.27881 37040 ft 399 kts 216°
2026-04-22 20:04 20.30542 -19.30803 37041 ft 399 kts 216°
2026-04-22 20:05 20.25710 -19.33714 37047 ft 399 kts 216°
2026-04-22 20:05 20.20875 -19.36625 37045 ft 399 kts 216°
2026-04-22 20:06 20.16035 -19.39538 37042 ft 400 kts 216°
2026-04-22 20:06 20.11199 -19.42454 37045 ft 400 kts 216°
2026-04-22 20:07 20.06366 -19.45373 37048 ft 400 kts 216°
2026-04-22 20:07 20.01526 -19.48288 37025 ft 400 kts 216°
2026-04-22 20:08 19.96681 -19.51200 37030 ft 400 kts 216°
2026-04-22 20:08 19.91839 -19.54115 37036 ft 400 kts 216°
2026-04-22 20:09 19.86989 -19.57032 37033 ft 401 kts 216°
2026-04-22 20:09 19.82131 -19.59946 37038 ft 401 kts 216°
2026-04-22 20:10 19.77264 -19.62858 37041 ft 401 kts 216°
2026-04-22 20:10 19.72400 -19.65766 37043 ft 401 kts 216°
2026-04-22 20:11 19.67542 -19.68682 37027 ft 401 kts 215°
2026-04-22 20:11 19.62703 -19.71586 37027 ft 403 kts 215°
2026-04-22 20:12 19.58201 -19.74991 37027 ft 393 kts 230°
2026-04-22 20:12 19.55115 -19.78570 37031 ft 393 kts 231°
2026-04-22 20:13 19.50817 -19.83530 37039 ft 393 kts 231°
2026-04-22 20:13 19.47106 -19.87785 37041 ft 393 kts 231°
2026-04-22 20:14 19.43403 -19.92040 37041 ft 393 kts 231°
2026-04-22 20:14 19.39707 -19.96299 37041 ft 392 kts 231°
2026-04-22 20:15 19.36012 -20.00558 37041 ft 393 kts 231°
2026-04-22 20:15 19.32336 -20.04783 37023 ft 393 kts 230°
2026-04-22 20:16 19.28621 -20.09049 37021 ft 394 kts 230°
2026-04-22 20:16 19.24895 -20.13320 37026 ft 395 kts 230°
2026-04-22 20:17 19.21161 -20.17598 37029 ft 395 kts 230°
2026-04-22 20:17 19.17427 -20.21877 37033 ft 396 kts 230°
2026-04-22 20:18 19.13689 -20.26159 37036 ft 396 kts 230°
2026-04-22 20:18 19.09948 -20.30440 37041 ft 397 kts 230°
2026-04-22 20:19 19.06191 -20.34717 37048 ft 397 kts 230°
2026-04-22 20:19 19.02470 -20.38978 37049 ft 397 kts 230°
2026-04-22 20:20 18.98721 -20.43268 37053 ft 397 kts 230°
2026-04-22 20:20 18.94967 -20.47555 37031 ft 397 kts 230°
2026-04-22 20:21 18.91202 -20.51846 37040 ft 398 kts 230°
2026-04-22 20:21 18.87430 -20.56140 37045 ft 399 kts 230°
2026-04-22 20:22 18.83648 -20.60436 37050 ft 400 kts 230°
2026-04-22 20:22 18.79867 -20.64742 37054 ft 400 kts 230°
2026-04-22 20:23 18.76084 -20.69045 37053 ft 400 kts 230°
2026-04-22 20:23 18.72288 -20.73347 37055 ft 400 kts 230°
2026-04-22 20:24 18.68500 -20.77648 37057 ft 400 kts 230°
2026-04-22 20:24 18.64709 -20.81943 37057 ft 400 kts 230°
2026-04-22 20:25 18.60922 -20.86234 37057 ft 400 kts 230°
2026-04-22 20:25 18.57164 -20.90494 37040 ft 400 kts 230°
2026-04-22 20:26 18.53375 -20.94788 37041 ft 400 kts 230°
2026-04-22 20:26 18.49578 -20.99087 37043 ft 400 kts 230°
2026-04-22 20:27 18.45774 -21.03384 37049 ft 401 kts 229°
2026-04-22 20:27 18.41967 -21.07680 37049 ft 401 kts 229°
2026-04-22 20:28 18.38161 -21.11973 37049 ft 401 kts 229°
2026-04-22 20:28 18.34353 -21.16269 37052 ft 401 kts 229°
2026-04-22 20:29 18.30544 -21.20569 37062 ft 401 kts 229°
2026-04-22 20:29 18.26758 -21.24834 37054 ft 402 kts 229°
2026-04-22 20:30 18.22945 -21.29125 37069 ft 401 kts 229°
2026-04-22 20:30 18.19127 -21.33419 37052 ft 402 kts 229°
2026-04-22 20:31 18.15313 -21.37714 37047 ft 402 kts 229°
2026-04-22 20:31 18.12141 -21.41283 37040 ft 402 kts 229°
2026-04-22 20:32 18.08314 -21.45566 37051 ft 402 kts 229°
2026-04-22 20:32 18.04478 -21.49858 37056 ft 402 kts 229°
2026-04-22 20:33 18.00651 -21.54156 37059 ft 403 kts 229°
2026-04-22 20:33 17.96820 -21.58451 37068 ft 403 kts 229°
2026-04-22 20:34 17.92987 -21.62739 37059 ft 403 kts 229°
2026-04-22 20:34 17.89153 -21.67025 37065 ft 402 kts 229°
2026-04-22 20:35 17.85323 -21.71304 37059 ft 402 kts 229°
2026-04-22 20:35 17.81495 -21.75597 37051 ft 403 kts 229°
2026-04-22 20:36 17.77685 -21.79859 37053 ft 403 kts 229°
2026-04-22 20:36 17.73836 -21.84146 37055 ft 404 kts 229°
2026-04-22 20:37 17.69987 -21.88432 37051 ft 404 kts 229°
2026-04-22 20:37 17.66063 -21.92651 37058 ft 405 kts 223°
2026-04-22 20:38 17.61161 -21.95641 37064 ft 413 kts 207°
2026-04-22 20:38 17.55874 -21.98010 37058 ft 413 kts 208°
2026-04-22 20:38 17.53233 -21.99201 36653 ft 410 kts 208°
2026-04-22 20:39 17.50615 -22.00385 35059 ft 413 kts 208°
2026-04-22 20:39 17.47956 -22.01591 33275 ft 420 kts 208°
2026-04-22 20:39 17.45254 -22.02815 31659 ft 424 kts 209°
2026-04-22 20:39 17.42597 -22.04010 31025 ft 404 kts 209°
2026-04-22 20:40 17.40040 -22.05155 30350 ft 403 kts 210°
2026-04-22 20:40 17.37425 -22.06341 29317 ft 414 kts 210°
2026-04-22 20:40 17.34766 -22.07548 28321 ft 420 kts 210°
2026-04-22 20:40 17.32070 -22.08765 27355 ft 423 kts 209°
2026-04-22 20:41 17.29358 -22.09985 26291 ft 425 kts 209°
2026-04-22 20:41 17.26633 -22.11207 25248 ft 428 kts 208°
2026-04-22 20:41 17.23887 -22.12438 24233 ft 430 kts 208°
2026-04-22 20:41 17.21154 -22.13665 23170 ft 425 kts 208°
2026-04-22 20:42 17.18454 -22.14877 22272 ft 420 kts 208°
2026-04-22 20:42 17.15810 -22.16063 21543 ft 417 kts 208°
2026-04-22 20:42 17.13157 -22.17253 20791 ft 413 kts 207°
2026-04-22 20:42 17.10531 -22.18431 20061 ft 409 kts 207°
2026-04-22 20:43 17.07923 -22.19602 19345 ft 405 kts 207°
2026-04-22 20:43 17.05342 -22.20760 18648 ft 404 kts 207°
2026-04-22 20:43 17.02762 -22.21920 17889 ft 402 kts 206°
2026-04-22 20:43 17.00214 -22.23064 17205 ft 395 kts 206°
2026-04-22 20:44 16.97701 -22.24191 16555 ft 390 kts 206°
2026-04-22 20:44 16.95219 -22.25303 15918 ft 386 kts 206°
2026-04-22 20:44 16.92763 -22.26403 15305 ft 383 kts 206°
2026-04-22 20:44 16.90329 -22.27493 14713 ft 379 kts 206°
2026-04-22 20:45 16.87912 -22.28577 14126 ft 376 kts 206°
2026-04-22 20:45 16.85519 -22.29652 13523 ft 373 kts 206°
2026-04-22 20:45 16.83146 -22.30716 12952 ft 369 kts 206°
2026-04-22 20:45 16.80825 -22.31818 12535 ft 363 kts 212°
2026-04-22 20:46 16.76879 -22.35041 12362 ft 360 kts 221°
2026-04-22 20:46 16.74953 -22.36706 12287 ft 359 kts 221°
2026-04-22 20:46 16.73034 -22.38371 12211 ft 359 kts 221°
2026-04-22 20:47 16.71115 -22.40038 12133 ft 358 kts 221°
2026-04-22 20:47 16.69202 -22.41699 12056 ft 358 kts 221°
2026-04-22 20:47 16.67296 -22.43355 11932 ft 353 kts 221°
2026-04-22 20:47 16.65449 -22.44956 11690 ft 337 kts 221°
2026-04-22 20:48 16.63682 -22.46485 11453 ft 323 kts 221°
2026-04-22 20:48 16.62005 -22.47935 11218 ft 310 kts 221°
2026-04-22 20:48 16.60374 -22.49346 10982 ft 299 kts 221°
2026-04-22 20:48 16.58805 -22.50706 10747 ft 288 kts 221°
2026-04-22 20:49 16.57290 -22.52023 10511 ft 278 kts 221°
2026-04-22 20:49 16.55828 -22.53294 10278 ft 269 kts 221°
2026-04-22 20:49 16.54414 -22.54523 10050 ft 261 kts 221°
2026-04-22 20:49 16.53047 -22.55710 9891 ft 249 kts 221°
2026-04-22 20:50 16.51747 -22.56838 9771 ft 237 kts 221°
2026-04-22 20:50 16.50511 -22.57907 9637 ft 225 kts 222°
2026-04-22 20:50 16.49323 -22.58935 9511 ft 220 kts 222°
2026-04-22 20:50 16.48151 -22.59948 9386 ft 219 kts 222°
2026-04-22 20:51 16.46982 -22.60960 9255 ft 218 kts 222°
2026-04-22 20:51 16.45828 -22.61959 9139 ft 219 kts 222°
2026-04-22 20:51 16.44657 -22.62976 8995 ft 220 kts 222°
2026-04-22 20:51 16.43478 -22.64001 8875 ft 221 kts 222°
2026-04-22 20:52 16.42298 -22.65026 8756 ft 221 kts 222°
2026-04-22 20:52 16.41119 -22.66047 8626 ft 221 kts 222°
2026-04-22 20:52 16.39937 -22.67071 8508 ft 221 kts 222°
2026-04-22 20:52 16.38753 -22.68093 8389 ft 221 kts 222°
2026-04-22 20:53 16.37574 -22.69110 8264 ft 221 kts 222°
2026-04-22 20:53 16.36391 -22.70131 8143 ft 220 kts 222°
2026-04-22 20:53 16.35213 -22.71151 8023 ft 220 kts 222°
2026-04-22 20:53 16.34036 -22.72170 7900 ft 219 kts 223°
2026-04-22 20:54 16.32868 -22.73180 7808 ft 218 kts 223°
2026-04-22 20:54 16.31698 -22.74191 7699 ft 219 kts 222°
2026-04-22 20:54 16.30530 -22.75201 7555 ft 218 kts 223°
2026-04-22 20:54 16.29365 -22.76209 7448 ft 218 kts 223°
2026-04-22 20:55 16.28201 -22.77217 7327 ft 217 kts 223°
2026-04-22 20:55 16.27090 -22.78174 7201 ft 197 kts 223°
2026-04-22 20:55 16.26071 -22.79048 7091 ft 185 kts 223°
2026-04-22 20:55 16.25085 -22.79898 6968 ft 183 kts 224°
2026-04-22 20:56 16.24107 -22.80745 6857 ft 183 kts 224°
2026-04-22 20:56 16.23127 -22.81593 6748 ft 183 kts 224°
2026-04-22 20:56 16.22151 -22.82438 6622 ft 182 kts 224°
2026-04-22 20:56 16.21177 -22.83280 6515 ft 182 kts 224°
2026-04-22 20:57 16.20203 -22.84120 6395 ft 182 kts 224°
2026-04-22 20:57 16.19226 -22.84963 6267 ft 183 kts 224°
2026-04-22 20:57 16.18249 -22.85807 6165 ft 182 kts 224°
2026-04-22 20:57 16.17289 -22.86632 6037 ft 175 kts 224°
2026-04-22 20:58 16.16357 -22.87437 5894 ft 173 kts 224°
2026-04-22 20:58 16.15444 -22.88226 5774 ft 173 kts 224°
2026-04-22 20:58 16.14520 -22.89021 5652 ft 171 kts 224°
2026-04-22 20:58 16.13611 -22.89801 5522 ft 169 kts 224°
2026-04-22 20:59 16.12720 -22.90569 5410 ft 165 kts 225°
2026-04-22 20:59 16.11841 -22.91328 5285 ft 164 kts 224°
2026-04-22 20:59 16.10965 -22.92083 5166 ft 164 kts 224°
2026-04-22 20:59 16.10090 -22.92838 5045 ft 163 kts 225°
2026-04-22 21:00 16.09215 -22.93593 4937 ft 163 kts 224°
2026-04-22 21:00 16.08339 -22.94349 4825 ft 164 kts 224°
2026-04-22 21:00 16.07457 -22.95109 4706 ft 165 kts 224°
2026-04-22 21:00 16.06570 -22.95874 4576 ft 166 kts 224°
2026-04-22 21:01 16.05682 -22.96642 4461 ft 166 kts 223°
2026-04-22 21:01 16.04791 -22.97409 4328 ft 167 kts 224°
2026-04-22 21:01 16.03895 -22.98182 4240 ft 169 kts 223°
2026-04-22 21:01 16.02988 -22.98965 4117 ft 170 kts 224°
2026-04-22 21:02 16.02076 -22.99752 3994 ft 171 kts 223°
2026-04-22 21:02 16.01158 -23.00542 3872 ft 172 kts 224°
2026-04-22 21:02 16.00232 -23.01340 3758 ft 173 kts 224°
2026-04-22 21:02 15.99222 -23.02038 3626 ft 177 kts 207°
2026-04-22 21:03 15.98020 -23.02372 3507 ft 181 kts 187°
2026-04-22 21:03 15.96760 -23.02281 3384 ft 183 kts 166°
2026-04-22 21:03 15.95600 -23.01773 3263 ft 181 kts 145°
2026-04-22 21:03 15.94668 -23.00917 3138 ft 177 kts 126°
2026-04-22 21:04 15.94062 -22.99844 3013 ft 173 kts 107°
2026-04-22 21:04 15.93711 -22.98662 2891 ft 171 kts 102°
2026-04-22 21:04 15.93371 -22.97460 2761 ft 171 kts 100°
2026-04-22 21:04 15.93395 -22.96268 2657 ft 163 kts 70°
2026-04-22 21:05 15.93949 -22.95293 2584 ft 158 kts 43°
2026-04-22 21:05 15.94868 -22.94706 2546 ft 155 kts 18°
2026-04-22 21:05 15.95906 -22.94386 2544 ft 156 kts 16°
2026-04-22 21:05 15.96950 -22.94062 2545 ft 157 kts 15°
2026-04-22 21:06 15.97960 -22.93747 2535 ft 143 kts 16°
2026-04-22 21:06 15.98889 -22.93458 2500 ft 137 kts 16°
2026-04-22 21:06 15.99779 -22.93181 2491 ft 133 kts 15°
2026-04-22 21:06 16.00663 -22.92907 2335 ft 133 kts 15°
2026-04-22 21:07 16.01550 -22.92633 2190 ft 132 kts 16°
2026-04-22 21:07 16.02425 -22.92362 2040 ft 131 kts 16°
2026-04-22 21:07 16.03299 -22.92092 1848 ft 130 kts 16°
2026-04-22 21:07 16.04155 -22.91826 1671 ft 128 kts 16°
2026-04-22 21:08 16.05009 -22.91562 1484 ft 129 kts 14°
2026-04-22 21:08 16.05871 -22.91297 1318 ft 129 kts 16°
2026-04-22 21:08 16.06725 -22.91032 1140 ft 128 kts 15°
2026-04-22 21:08 16.07584 -22.90765 975 ft 129 kts 17°
2026-04-22 21:09 16.08439 -22.90499 809 ft 127 kts 19°
2026-04-22 21:09 16.09273 -22.90235 655 ft 124 kts 20°
2026-04-22 21:09 16.10122 -22.89955 596 ft 130 kts 16°
2026-04-22 21:09 16.10960 -22.89726 505 ft 121 kts 17°
2026-04-22 21:10 16.11764 -22.89480 294 ft 121 kts 19°
2026-04-22 21:10 16.12586 -22.89211 146 ft 123 kts 18°
2026-04-22 21:10 16.13374 -22.88969 70 ft 96 kts 17°
2026-04-22 21:10 16.13728 -22.88860 85 ft 16 kts 16°
2026-04-22 21:11 16.13822 -22.88831 90 ft 16 kts 16°
2026-04-22 21:11 16.13966 -22.88786 89 ft 24 kts 17°
2026-04-22 21:11 16.14119 -22.88739 94 ft 22 kts 16°
2026-04-22 21:11 16.14228 -22.88701 94 ft 5 kts 39°
2026-04-22 21:12 16.14246 -22.88693 94 ft 2 kts 352°
2026-04-22 21:12 16.14208 -22.88717 93 ft 11 kts 191°
2026-04-22 21:12 16.14131 -22.88735 92 ft 14 kts 193°
2026-04-22 21:12 16.14031 -22.88765 92 ft 16 kts 196°
2026-04-22 21:13 16.13924 -22.88799 90 ft 16 kts 198°
2026-04-22 21:13 16.13817 -22.88832 86 ft 16 kts 197°
2026-04-22 21:13 16.13704 -22.88867 83 ft 18 kts 196°
2026-04-22 21:13 16.13628 -22.88895 82 ft 11 kts 214°
2026-04-22 21:14 16.13611 -22.88969 75 ft 11 kts 274°
2026-04-22 21:14 16.13584 -22.89007 68 ft 6 kts 206°
2026-04-22 21:14 16.13545 -22.89027 75 ft 5 kts 230°
2026-04-22 21:14 16.13554 -22.89035 67 ft 2 kts 353°
2026-04-22 21:15 16.13584 -22.89022 70 ft 7 kts 25°
2026-04-22 21:15 16.13628 -22.89012 70 ft 5 kts 354°
2026-04-22 21:15 16.13632 -22.89036 73 ft 5 kts 278°
2026-04-22 21:15 16.13642 -22.89075 73 ft 5 kts 285°
2026-04-22 21:16 16.13646 -22.89088 69 ft 0 kts 287°